Regional Weather Roundup
Issued by NWS Pendleton, OR

Home | Current Version | Previous Version | Text Only | Print | Product List | Glossary On
Versions: 1 2 3 4 5 6 7 8 9 10 11 12 13 14 15 16 17 18 19 20 21 22 23 24 25 26 27 28 29 30 31 32 33 34 35 36 37 38 39 40 41 42 43 44 45 46 47 48 49 50
000
ASUS46 KPDT 122125
RWRPDT
PENDLETON REGIONAL WEATHER ROUNDUP
NATIONAL WEATHER SERVICE PENDLETON OREGON
200 PM PDT SAT JUL 12 2014

NOTE: FAIR INDICATES FEW OR NO CLOUDS BELOW 12,000 FEET WITH NO
SIGNIFICANT WEATHER AND/OR OBSTRUCTIONS TO VISIBILITY.

# INDICATES UNOFFICIAL STATION AND DATA

WAZ520-122210-
EAST SLOPES OF WASHINGTON CASCADES

CITY            SKY/WX      TMP DP  RH  WIND    PRES   REMARKS
#CLE ELUM HS    N/A         92  39  16  E6      30.03F HX 88
#CLE ELUM LAKE  N/A         90  41  18  CALM    29.95F HX 86
#CLIFFDEL 2NW   N/A         97  40  14  S1      N/A    HX 92
#GLENWOOD       N/A         93  50  23  S1      29.98F HX 90
#MANASTASH CYN  N/A         89  49  25  NW3     30.12F
#NELSON         N/A         95  40  15  CALM    29.98F HX 91
#NELSON 3SW     N/A         92  41  17  CALM    30.16F HX 88
#NILE           N/A         94  39  15  E1      29.26F HX 90
#RONALD 2NW     N/A         90  45  21  W2      30.01F HX 86
#TROUT LAKE 1NE N/A         92  52  26  SE3     29.98S HX 89
$$

WAZ521-122210-
SIMCOE HIGHLANDS

CITY            SKY/WX      TMP DP  RH  WIND    PRES   REMARKS
#BICKLETON HS   N/A         89  25  10  SE6     30.18S
#CENTERVILLE 4W N/A         96  42  16  E3      29.83F HX 92
#CENTERVILLE 1SWN/A         95  45  18  SE3     29.93F HX 91
#GOLDENDALE 1NE N/A         96  39  14  SW2     N/A    HX 91
#GOLDENDALE 1S  N/A         98  50  20  CALM    30.03F HX 95
#GOODNOE HILLS  N/A         100 44  15  S8      29.97F HX 96
#LYLE 6NE       N/A         91  49  24  SW2     29.94F HX 88
$$

WAZ026-122210-
KITTITAS VALLEY

CITY            SKY/WX      TMP DP  RH  WIND    PRES   REMARKS
ELLENSBURG AP   PTCLDY      101 42  13  MISG    30.08F HX 96
#ELLENSBURG CWU N/A         95  42  16  NE5     29.92F HX 91
#ELLENSBURG 3NE N/A         91  53  28  NE3     30.08F HX 89
#KITTITAS 3S    N/A         91  63  40  CALM    29.96F HX 92
#THORP 6N       N/A         92  41  17  E5      29.99F HX 88
$$

WAZ027-122210-
YAKIMA VALLEY

CITY            SKY/WX      TMP DP  RH  WIND    PRES   REMARKS
YAKIMA AIRPORT  SUNNY       99  33  10  SE8     30.04F HX 94
#COWICHE 1N     N/A         89  52  28  SE2     30.22F
#DONALD 2NE     N/A         102 42  13  NE1     30.36F HX 97
#GRANDVIEW      N/A         94  46  19  CALM    29.98F HX 90
#MABTON         N/A         93  51  24  N7      30.00F HX 90
#MOXEE 2E       N/A         94  13   5  S12     29.90F HX 89
#NACHES 2SW     N/A         90  59  35  S2      30.11S HX 89
#OUTLOOK DOT    N/A         N/A N/A N/A E2      N/A
#SELAH 8E       N/A         98  37  12  S7      N/A    HX 93
#TERRACE HTS    N/A         96  39  14  S2      29.94F HX 91
#TOPPENISH      N/A         94  54  26  E3      29.89F HX 92
#WAPATO 4NE     N/A         102 42  13  NE1     30.36F HX 97
#WEST VALLEY    N/A         96  37  13  E2      29.98F HX 91
#W YAKIMA       N/A         96  42  16  E3      29.96F HX 92
#WHITE SWAN 5E  N/A         94  48  21  NE7     29.97F HX 91
#WILEY CITY 3W  N/A         94  29  10  CALM    30.04F HX 89
$$

WAZ028-122210-
LOWER COLUMBIA BASIN...WASHINGTON

CITY            SKY/WX      TMP DP  RH  WIND    PRES   REMARKS
HANFORD         MOSUNNY     100 37  11  E6      30.02F HX 95
PASCO           SUNNY       97  51  21  NW7     30.01F HX 94
PROSSER AWOS    N/A         97  48  19  N12     30.03F HX 94
RICHLAND AWOS   SUNNY       95  48  20  E6      30.01F HX 91
#BASIN CITY 5SW N/A         93  60  33  CALM    30.02F HX 93
#BENTON CITY    N/A         95  52  24  NE5     29.88F HX 92
#CONNELL 5N     N/A         99  48  18  NW2     29.97F HX 96
#CONNELL 5NW    N/A         91  58  33  N3      29.94F HX 90
#ELTOPIA 6NW    N/A         97  57  27  NW3     29.01F HX 96
#KENNEWICK 3S   N/A         95  52  24  CALM    29.99F HX 92
#PATERSON       N/A         97  51  21  SE2     29.95F HX 94
#PROSSER        N/A         97  38  13  N6      29.96F HX 92
#SAGEMOOR 2W    N/A         94  60  32  E2      29.85F HX 94
#TOUCHET 2S     N/A         94  58  30  CALM    29.96F HX 93
#WEST PASCO     N/A         96  56  26  NE1     30.01S HX 94
$$

WAZ029-122210-
FOOTHILLS OF THE BLUES...WASHINGTON

CITY            SKY/WX      TMP DP  RH  WIND    PRES   REMARKS
WALLA WALLA AP  SUNNY       100 37  11  NW7     30.04F HX 95
#COLLEGE PLACE  N/A         104 50  17  SW1     29.99F HX 101
#DAYTON SCHOOL  N/A         95  36  13  SW5     30.05F HX 90
#LOWDEN 2SE     N/A         96  56  26  W3      29.96F HX 94
#PLEASANT VIEW 1N/A         96  33  11  E9      30.00F HX 91
#PRESCOTT       N/A         100 42  14  E1      29.94F HX 96
#SUDBURY        N/A         97  N/A N/A W6      N/A
#WHITMAN COLLEGEN/A         97  42  15  SW3     30.00F HX 93
#WAITSBURG 8N   N/A         104 34   9  N3      29.88S HX 98
#WALLA WALLA 5E N/A         89  52  28  W5      N/A
#WALLA WALLA U  N/A         98  49  19  CALM    29.95F HX 95
#WHITMAN MISSIONN/A         96  58  28  W1      29.97F HX 95
$$

WAZ030-122210-
BLUE MOUNTAINS...WASHINGTON

CITY            SKY/WX      TMP DP  RH  WIND    PRES   REMARKS
$$

ORZ009-041-WAZ024-122210-
COLUMBIA RIVER GORGE

CITY            SKY/WX      TMP DP  RH  WIND    PRES   REMARKS
HOOD RIVER AP   SUNNY       93  54  27  CALM    30.01F HX 91
THE DALLES AP   SUNNY       99  48  18  NW9     29.96F HX 96
#ARLINGTON AIRPON/A         98  44  16  N6      N/A    HX 94
#ARLINGTON HS   N/A         99  48  18  E1      29.86F HX 96
#CELILO DOT     N/A         104 60  24  N5      N/A    HX 105
#MOSIER 1S      N/A         94  44  18  NW2     30.06F HX 90
#MURDOCK        N/A         91  56  31  NW7     29.97F HX 89
#RUFUS DOT      N/A         N/A N/A N/A SW3     N/A

$$

ORZ510-122210-
NORTH CENTRAL OREGON

CITY            SKY/WX      TMP DP  RH  WIND    PRES   REMARKS
#CHENOWITH 1W   N/A         91  40  17  SE1     N/A    HX 87
#COW CYN RST AREN/A         92  83  75  E6      N/A    HX 116
#GRASS VALLEY 1SN/A         96  44  17  E3      29.97S HX 92
#KENT DOT       N/A         95  43  17  N7      N/A    HX 91
#MAUPIN SCHOOL  N/A         100 34  10  NE5     30.02F HX 95
#MORO SCHOOL    N/A         96  50  21  E2      30.07F HX 93
#SHANIKO 5WSW   N/A         90  42  19  E6      N/A    HX 86
#SHANIKO 4NW    N/A         90  28  11  E9      30.19F HX 86
#TYGH VALLEY 2NEN/A         97  38  13  SE7     29.94F HX 92
#WAPANITIA AIRPON/A         97  36  12  SE7     29.95F HX 92
#WASCO DOT      N/A         98  56  25  N7      N/A    HX 97
#WASCO 5NE      N/A         98  49  19  E3      29.96F HX 95
$$

ORZ511-122210-
CENTRAL OREGON

CITY            SKY/WX      TMP DP  RH  WIND    PRES   REMARKS
BEND AIRPORT    SUNNY       91  43  19  NW7     30.16F HX 87
MADRAS AIRPORT  SUNNY       95  37  13  NE6     30.12F HX 90
REDMOND AIRPORT SUNNY       93  38  15  VRB3    30.12F HX 89
#BEND 6E        N/A         89  40  18  CALM    29.86F
#BEND 1SW       N/A         90  42  19  E6      N/A    HX 86
#BEND-AWBREY    N/A         94  45  19  NE3     29.96F HX 90
#BEND-KIM LN    N/A         94  48  21  SE1     30.13F HX 91
#CULVER         N/A         92  45  20  N1      30.07F HX 88
#LAKE BILLY CHINN/A         95  14   5  N8      30.09F HX 90
#POWELL BUTTE   N/A         92  50  24  NE1     29.78F HX 89
#PRINEVILLE 3N  N/A         90  52  27  CALM    29.92F HX 87


ORZ509-122210-
EAST SLOPES OF OREGON CASCADES

CITY            SKY/WX      TMP DP  RH  WIND    PRES   REMARKS
#BLUE BOX PASS  N/A         91  30  11  CALM    N/A    HX 87
#BLACK BUTTE RNCN/A         90  48  24  CALM    29.97F HX 87
#CAMP SHERMAN   N/A         98  46  17  CALM    29.95F HX 94
#LA PINE DOT    N/A         91  35  14  SW6     N/A    HX 87
#LA PINE 4NW    N/A         88  52  29  CALM    30.04F
#LAVA BUTTE DOT N/A         91  51  26  SW1     N/A    HX 88
#SISTERS AIRPOR N/A         91  55  30  S7      30.13F HX 89
#SISTERS ODOT   N/A         90  N/A N/A NW3     N/A
#SISTERS 3N     N/A         90  32  13  N3      30.13F HX 86
#SUNRIVER       N/A         90  45  21  SW2     29.89F HX 86
#SUNRIVER AP    N/A         87  47  25  SW3     29.97F
#SUTTLE LK DOT  N/A         92  50  24  E5      N/A    HX 89
#TUMALO 3W      N/A         90  46  22  N5      29.83F HX 87
#WANOGA BUTTE D N/A         81  40  23  SW1     N/A

$$

ORZ044-122210-
LOWER COLUMBIA BASIN...OREGON

CITY            SKY/WX      TMP DP  RH  WIND    PRES   REMARKS
HERMISTON       SUNNY       99  48  18  N8      30.01F HX 96
#BOARDMAN 3W    N/A         98  57  26  NE6     29.68F HX 97
#BOARDMAN 8SW   N/A         97  50  21  N5      29.96F HX 94
#IONE SCHOOL    N/A         97  40  14  N3      30.01F HX 92
#IRRIGON 4NW    N/A         98  51  21  W3      N/A    HX 95
#UMATILLA SCHOOLN/A         103 67  32  N1      30.07R HX 109
#UMATILLA       N/A         100 54  22  N1      29.96F HX 98
$$

ORZ507-122210-
NORTHERN FOOTHILLS OF THE BLUES

CITY            SKY/WX      TMP DP  RH  WIND    PRES   REMARKS
PENDLETON AIRPT SUNNY       98  36  12  MISG    30.04F HX 93
#ADAMS 3WNW     N/A         96  39  14  SE6     29.95S HX 91
#ATHENA         N/A         93  43  18  N2      29.99F HX 89
#HELIX SCHOOL   N/A         93  38  15  NE8     29.97F HX 89
#HELIX 3N       N/A         93  38  15  N15     30.05F HX 89
#M-FREEWATER 5SEN/A         93  56  29  NW6     30.03F HX 91
#PDT AQUATIC CTRN/A         96  43  16  S2      30.03S HX 92
#PENDLETON DNTN N/A         100 49  18  W1      29.98F HX 97
#PDT SUNRIDGE   N/A         98  44  16  CALM    30.03F HX 94
#PENDLETON 7NW  N/A         94  58  30  SW2     27.45S HX 93
#PILOT ROCK     N/A         95  45  18  W5      30.07F HX 91
#TUTUILLA       N/A         98  47  18  CALM    29.91F HX 94
#UMAPINE 2E     N/A         94  64  37  SW1     29.98F HX 96
#WESTON SCHOOL  N/A         92  38  15  E7      30.06F HX 88

$$

ORZ508-122210-
SOUTHERN FOOTHILLS OF THE BLUES

CITY            SKY/WX      TMP DP  RH  WIND    PRES   REMARKS
#AJAX           N/A         N/A N/A N/A NE5     30.12F
#CONDON SCHOOL  N/A         92  39  16  N6      30.09F HX 88
#CONDON 5W      N/A         89  35  15  NE8     30.14S
#FOSSIL SCHOOL  N/A         94  37  14  NE7     30.07F HX 90
#HEPPNER EOC    N/A         96  41  15  N7      29.91S HX 92
#HEPPNER 4NE    N/A         90  41  18  NW9     29.95F HX 86
#LEXINGTON 2SE  N/A         98  44  16  CALM    30.02F HX 94
#MIKKALO        N/A         97  42  15  E8      30.09S HX 93
#OLEX 4N        N/A         95  40  15  NE7     30.01F HX 91
#RUGGS 5NE      N/A         99  -4   2  NE5     30.33F HX 93
#RUGGS 2SW      N/A         93  37  14  W7      30.00F HX 89

$$

ORZ502-503-122210-
BLUE MOUNTAINS

CITY            SKY/WX      TMP DP  RH  WIND    PRES   REMARKS
MEACHAM         SUNNY       87  42  21  VRB5    30.21S
#BATTLE MTN DOT N/A         84  57  40  N5      N/A
#HARDMAN 10S    N/A         90  36  15  W2      30.25F HX 86
#HEPPNER 15SE   N/A         90  42  19  W2      30.15F HX 86
#LADD CYN SMT   N/A         88  46  23  NW7     N/A
#LADD CREEK ODOTN/A         90  56  32  NE7     N/A    HX 88
#N POWDER DOT   N/A         90  56  32  N6      N/A    HX 88
#TOLLGATE       N/A         79  45  30  SW1     30.19S
#TROY SCHOOL    N/A         99  51  20  E3      29.79F HX 96
#UKIAH          N/A         89  45  22  NW6     30.02S
#WESTON 4E      N/A         86  45  24  N5      29.92F
$$

ORZ505-122210-
JOHN DAY BASIN

CITY            SKY/WX      TMP DP  RH  WIND    PRES   REMARKS
JOHN DAY        PTCLDY      93  32  12  S3      30.16F HX 89
#JOHN DAY KJDY  N/A         97  52  22  CALM    30.03S HX 94
#MONUMENT HS    N/A         97  38  13  N7      29.80F HX 92
#MT. VERNON 5SE N/A         90  33  13  N2      30.14F HX 86
#WINLOCK        N/A         97  42  15  CALM    30.20F HX 93
$$

ORZ506-122210-
OCHOCO AND JOHN DAY HIGHLANDS

CITY            SKY/WX      TMP DP  RH  WIND    PRES   REMARKS
#BUCK CREEK DOT N/A         91  49  24  SW7     N/A    HX 88
#HORSE RIDGE DO N/A         89  39  17  W7      N/A
#KEYES SMT DOT  N/A         88  28  11  NW7     N/A
#PAULINA SCHOOL N/A         91  40  17  SE1     30.15F HX 87
#PINE MTN OBS   N/A         77  41  28  NW1     N/A
#PRAIRIE CITY   N/A         94  34  12  CALM    29.87F HX 89
#SENECA 9NW     N/A         89  35  15  N1      29.98F
$$

ORZ049-122210-
GRANDE RONDE VALLEY

CITY            SKY/WX      TMP DP  RH  WIND    PRES   REMARKS
LA GRANDE       SUNNY       93  45  19  NE5     30.11F HX 89
#COVE           N/A         91  56  31  CALM    30.03F HX 89
#COVE SCHOOL    N/A         93  54  27  W1      30.09F HX 91
#COVE 6NW       N/A         88  51  28  N5      30.00F
#ELGIN 3N       N/A         94  45  19  S6      29.83F HX 90
#ELGIN 1E       N/A         93  43  18  CALM    N/A    HX 89
#ISLAND CITY 4N N/A         93  58  31  E5      29.91S HX 92
#LADD CYN DOT   N/A         93  53  26  NE6     N/A    HX 91
#UNION 1S       N/A         90  55  31  SW1     29.86F HX 88
$$

ORZ050-122210-
WALLOWA COUNTY

CITY            SKY/WX      TMP DP  RH  WIND    PRES   REMARKS
#ENTERPRISE HS  N/A         90  47  23  W5      30.15F HX 87
#IMNAHA SCHOOL  N/A         98  32  10  N6      29.93F HX 93
#JOSEPH 3N      N/A         87  49  27  CALM    30.20F
#LOSTINE        N/A         91  43  19  N2      29.75F HX 87
#MT HOWARD 8000 N/A         67  35  30  NW5     30.51F
#PROMISE 1S     N/A         86  44  23  W3      30.09S
#SHEEP RDG 7000 N/A         71  37  29  CALM    29.99F
#WALLOWA SCHOOL N/A         92  38  15  N1      30.82F HX 88



$$



USA.gov is the U.S. government's official web portal to all federal, state and local government web resources and services.